Theta_e
314 312 305 305 312 312 316 323 323 321 324 323 326 335 336 343 347 349 355 358 357 361 360 358 357 357 358 358 359 359 359 361
311 307 310 310 310 312 314 322 323 322 319 326 331 334 341 349 350 349 353 357 360 361 361 359 357 357 358 358 358 358 357 358
307 306 308 311 312 310 315 321 323 323 319 322 333 345 350 351 351 347 352 356 358 361 361 360 356 357 357 358 359 359 358 356
304 303 306 307 308 315 318 323 324 322 320 325 340 345 349 351 351 351 351 355 358 360 361 360 358 358 359 359 359 359 359 359
302 302 303 306 309 309 320 322 322 322 317 325 337 347 349 350 352 352 352 354 356 357 359 360 359 358 360 360 359 359 359 358
301 301 302 306 308 312 321 321 327 325 318 323 335 345 347 349 348 348 350 352 353 355 356 355 353 358 359 360 360 360 359 359
300 300 304 307 308 311 313 320 325 327 328 333 341 344 343 342 343 345 347 349 351 352 353 356 354 355 357 356 357 358 357 357
303 304 305 310 323 323 317 315 322 326 334 337 340 341 339 338 337 339 342 346 349 350 352 352 352 355 356 354 352 351 350 353
305 305 304 305 323 325 323 319 325 324 328 334 336 338 339 339 340 340 341 344 346 349 351 350 350 350 354 354 354 355 355 354
306 315 313 316 325 321 323 325 330 330 334 335 336 337 336 331 335 338 339 343 346 347 350 351 349 348 349 351 349 348 349 350
310 324 324 324 321 322 324 331 336 335 335 334 337 341 343 346 345 345 343 345 344 347 348 350 350 349 348 348 345 346 346 347
315 322 323 320 321 323 330 337 338 339 339 340 340 339 338 340 340 341 342 340 341 343 347 348 350 347 344 344 345 344 345 345
314 311 321 318 318 320 329 337 335 336 337 337 339 339 337 338 338 339 340 344 344 344 345 346 347 344 344 345 345 344 343 344
314 316 319 321 312 321 330 333 331 334 333 333 334 335 336 336 337 340 337 339 342 343 345 342 342 343 345 345 343 342 339 339
311 317 316 320 314 321 330 330 328 330 332 333 331 330 330 331 334 336 339 339 338 343 342 347 344 343 344 343 340 339 338 339
309 314 319 316 315 322 328 325 323 325 328 327 323 323 325 328 333 335 338 340 341 341 343 346 344 343 343 343 341 342 341 341
311 313 314 313 317 319 323 323 319 319 320 319 319 322 324 327 329 331 334 335 336 336 342 341 340 340 343 339 342 342 343 341
310 314 314 313 312 318 320 323 323 319 318 318 319 320 322 325 326 328 330 332 334 335 338 338 335 341 344 342 342 343 343 344
307 311 313 312 310 314 319 322 323 324 323 322 320 320 322 324 326 326 326 326 328 332 334 335 337 334 334 334 331 329 331 334
309 308 304 307 301 311 315 319 321 322 322 322 322 322 323 323 325 326 326 328 328 329 330 330 332 330 331 326 323 326 328 331
Wind_Speed
1 1 4 5 4 10 13 6 6 1 1 2 2 2 1 3 11 15 17 15 14 17 16 16 15 14 12 11 11 12 13 13
3 5 3 4 11 10 6 1 5 2 1 1 3 1 2 10 11 15 16 15 17 16 16 15 16 15 13 12 11 11 12 12
3 4 5 6 9 9 2 1 5 2 1 1 2 3 7 9 7 9 12 11 15 14 15 16 17 17 15 13 11 9 10 11
2 5 5 6 8 4 2 1 2 1 1 1 3 6 9 9 8 7 8 7 10 11 12 14 15 15 15 14 13 13 12 11
2 6 6 9 16 7 3 1 2 1 1 4 8 8 9 9 10 9 8 7 7 8 8 8 11 13 14 15 15 14 14 14
2 4 8 13 11 4 6 5 3 2 7 8 6 9 10 9 8 9 7 7 6 6 7 7 8 7 9 12 13 13 13 12
1 2 8 12 13 10 8 4 0 9 8 5 14 12 10 10 10 9 6 6 6 6 6 7 7 6 8 10 10 10 12 12
1 2 5 8 11 8 8 6 9 10 12 8 11 10 9 9 5 7 9 8 7 7 7 6 5 7 7 7 8 8 9 8
3 5 2 4 13 14 13 7 12 20 1 7 6 4 8 8 9 9 5 4 8 7 7 6 5 3 4 4 5 6 9 8
6 9 4 5 6 18 19 10 13 13 9 10 10 11 16 16 17 16 14 9 7 10 9 9 5 2 1 3 5 4 7 7
8 15 17 18 16 21 20 15 17 20 19 17 17 18 18 15 14 12 13 11 8 6 10 9 6 5 3 2 1 3 4 3
9 9 11 24 20 8 15 13 18 21 21 20 23 21 19 21 20 18 15 14 10 2 4 4 5 7 6 8 6 4 3 1
7 1 5 7 22 16 10 12 18 19 18 20 22 21 20 16 16 17 15 14 16 12 5 7 7 8 4 3 3 7 8 8
7 2 6 3 7 10 9 12 17 17 15 19 20 18 19 18 16 14 13 17 19 13 7 2 6 7 5 4 4 8 8 7
6 11 1 3 11 7 10 11 16 15 13 15 16 17 18 18 17 17 17 15 15 16 13 16 8 4 4 6 5 4 3 6
6 8 17 18 14 10 10 12 14 13 12 14 17 17 17 15 14 14 16 17 16 14 15 13 8 5 2 2 2 3 6 8
9 4 12 13 13 10 9 11 13 13 14 14 15 14 15 13 13 13 14 14 14 15 12 9 6 4 1 3 4 7 8 13
6 8 9 13 11 9 7 7 10 8 9 9 9 11 12 13 10 11 11 10 11 11 11 10 7 4 3 4 5 7 7 8
5 9 10 8 9 5 6 8 5 3 8 8 7 9 9 11 11 11 11 10 10 10 10 10 11 7 7 6 7 7 10 11
14 8 4 3 5 4 5 8 6 4 7 5 4 7 7 8 9 8 8 7 8 9 10 9 9 8 10 8 10 10 11 11
Wind_Direction
25 209 327 318 252 315 303 304 264 176 307 2 28 68 6 70 146 151 159 160 159 161 161 159 157 153 148 143 141 141 141 139
271 307 285 257 332 335 307 4 204 134 336 183 9 334 27 139 145 154 159 162 154 160 161 160 160 156 156 156 156 150 149 147
306 297 272 272 299 326 279 196 187 167 27 271 73 42 109 120 127 149 152 159 160 162 164 164 164 164 164 167 164 162 161 162
312 299 290 298 333 295 212 164 100 122 212 50 48 53 84 97 102 115 134 165 158 169 171 168 169 167 170 169 171 175 175 180
294 312 346 358 341 7 336 27 33 102 61 54 60 82 98 108 115 121 131 166 167 188 191 188 176 178 176 173 175 180 183 188
212 349 11 349 4 10 37 6 339 330 25 61 112 115 116 109 108 117 125 157 182 197 211 219 203 203 196 187 182 184 189 194
350 326 350 348 7 19 322 279 353 52 33 126 135 133 130 135 143 141 148 172 188 206 210 222 231 231 223 223 209 205 201 205
303 282 330 55 34 338 340 344 65 51 62 123 134 140 162 165 156 174 173 177 204 212 216 228 249 247 246 247 239 234 231 234
7 323 323 89 61 32 1 22 337 305 334 124 113 122 43 36 11 353 335 241 215 211 219 221 226 275 290 292 305 310 306 305
354 8 89 73 83 52 42 27 26 58 104 90 62 39 35 39 23 15 3 331 262 228 214 213 208 216 349 9 24 3 1 3
68 90 91 82 68 63 46 54 66 74 69 66 56 43 38 44 37 26 7 334 304 245 225 222 193 182 179 144 142 260 261 255
90 114 95 71 53 62 40 68 69 68 65 60 61 57 50 42 37 35 22 15 20 14 269 226 206 174 187 162 194 225 215 174
35 334 157 335 42 43 43 72 75 72 69 64 59 61 56 48 47 34 35 34 50 72 58 150 174 173 186 213 187 147 134 128
37 348 28 146 78 34 39 80 76 72 69 70 62 61 63 49 47 44 39 45 40 44 354 85 181 178 183 141 90 118 146 179
106 15 224 109 124 50 34 66 69 69 74 79 76 60 58 54 48 48 44 41 50 50 42 40 45 54 115 153 158 159 203 224
82 46 96 98 103 90 68 67 67 65 58 62 74 65 64 65 59 50 51 53 51 49 47 54 68 65 67 296 248 225 254 259
118 137 68 93 98 83 80 77 69 57 53 50 45 64 68 64 66 62 58 59 54 55 42 49 62 60 20 288 265 271 267 265
100 95 105 121 101 85 80 87 85 89 88 80 73 62 62 70 65 71 69 63 67 63 49 38 35 19 336 314 297 303 308 307
148 118 91 129 118 124 74 102 112 175 91 78 72 76 78 74 67 62 57 46 51 43 42 29 16 10 356 345 334 330 328 323
144 172 152 283 150 128 111 126 97 99 120 103 108 95 83 80 72 60 52 49 48 47 38 30 16 11 359 343 333 326 320 321